time_stamp(utc),avg(mph),gust(mph),direction(deg),12m_air_temp(f),sonic_u(cm/s),sonic_v(cm/s),sonic_w(cm/s),pressure,2m_air_temp(f),pyranometer(W/m^2)
"2016-10-31 00:02:20+00",12.8,14.8,,64.2,-431,385,36,1010.91,63.2,0
"2016-10-31 00:07:20+00",11.4,13.4,,64,-408,311,29,1010.84,62.9,0
"2016-10-31 00:12:20+00",10.2,11.2,,63.7,-383,230,22,1010.76,62.6,0
"2016-10-31 00:17:20+00",7.2,8.2,,63.1,-312,57,16,1010.64,62.3,0
"2016-10-31 00:22:20+00",9.4,10.4,,62.6,-412,42,17,1010.58,61.8,0
"2016-10-31 00:27:20+00",9.7,10.7,,62.6,-422,-25,14,1010.78,61.6,0
"2016-10-31 00:32:20+00",10.0,11.0,,62.3,-440,63,20,1010.86,61.4,0
"2016-10-31 00:37:20+00",10.6,11.6,,61.9,-468,27,19,1010.85,61.2,0
"2016-10-31 00:42:20+00",10.1,11.1,,61.6,-441,30,18,1010.83,61,0
"2016-10-31 00:47:20+00",12.2,14.2,,61.5,-531,127,19,1011.05,60.8,0
"2016-10-31 00:52:20+00",10.9,11.9,,61.3,-475,142,21,1011.05,60.7,0
"2016-10-31 00:57:20+00",11.1,12.1,,60.8,-469,161,22,1011.2,60.6,0
"2016-10-31 01:02:20+00",11.5,13.5,,60.6,-512,125,22,1011.32,60.3,0
"2016-10-31 01:07:20+00",10.4,11.4,,60.6,-455,87,12,1011.16,60.2,0
"2016-10-31 01:12:20+00",10.2,11.2,,60.7,-448,121,18,1011.11,60.2,0
"2016-10-31 01:17:20+00",9.3,10.3,,60.7,-407,87,16,1011.18,60.2,0
"2016-10-31 01:22:20+00",6.7,7.7,,60.7,-276,110,12,1010.83,60.1,0
"2016-10-31 01:27:20+00",9.6,10.6,,60.8,-419,83,18,1011.39,60.1,0
"2016-10-31 01:32:20+00",6.1,7.1,,60.8,-269,25,11,1011.3,60,0
"2016-10-31 01:37:20+00",6.6,7.6,,60.8,-244,159,11,1011.27,60,0
"2016-10-31 01:42:20+00",8.7,9.7,,60.7,-307,223,16,1011.33,59.9,0
"2016-10-31 01:47:20+00",10.1,11.1,,60.5,-288,348,21,1011.34,59.9,0
"2016-10-31 01:52:20+00",10.8,11.8,,60.8,-319,356,35,1011.42,60.2,0
"2016-10-31 01:57:20+00",11.9,12.9,,61.3,-343,398,35,1011.56,60.5,0
"2016-10-31 02:02:20+00",16.0,18.0,,61.7,-452,553,44,1011.66,60.8,0
"2016-10-31 02:07:20+00",19.0,21.0,,62.3,-326,773,28,1011.85,61,0
"2016-10-31 02:12:20+00",15.3,17.3,,62.1,-246,617,26,1011.87,61,0
"2016-10-31 02:17:20+00",14.1,16.1,,62,-188,599,12,1011.89,60.9,0
"2016-10-31 02:22:20+00",13.4,15.4,,62,-194,556,14,1011.89,60.8,0
"2016-10-31 02:27:20+00",14.0,17.0,,61.6,-204,574,41,1012.04,60.9,0
"2016-10-31 02:32:20+00",19.2,22.2,,61.3,-200,818,42,1012.07,60.7,0
"2016-10-31 02:37:20+00",16.6,19.6,,60.9,-224,712,42,1012.18,60.4,0
"2016-10-31 02:42:20+00",20.9,22.9,,60.4,-210,902,35,1012.3,59.9,0
"2016-10-31 02:47:20+00",17.2,21.2,,60,-213,738,45,1012.31,59.6,0
"2016-10-31 02:52:20+00",17.6,20.6,,59.4,-216,741,43,1012.43,59.2,0
"2016-10-31 02:57:20+00",17.8,21.8,,59.1,-207,767,42,1012.51,58.8,0
"2016-10-31 03:02:20+00",19.7,22.7,,58.8,-206,836,27,1012.55,58.4,0
"2016-10-31 03:07:20+00",17.3,22.3,,58.6,-225,723,35,1012.74,58.1,0
"2016-10-31 03:12:20+00",17.7,22.7,,58.4,-330,724,41,1012.84,58,0
"2016-10-31 03:17:20+00",16.7,20.7,,58.2,-257,689,26,1012.93,57.8,0
"2016-10-31 03:22:20+00",18.7,21.7,,58.1,-285,774,12,1012.88,57.6,0
"2016-10-31 03:27:20+00",17.7,22.7,,57.9,-249,737,18,1012.9,57.5,0
"2016-10-31 03:32:20+00",15.1,19.1,,57.7,-214,640,25,1012.9,57.3,0
"2016-10-31 03:37:20+00",14.9,16.9,,57.6,-241,623,38,1012.92,57.1,0
"2016-10-31 03:42:20+00",15.4,18.4,,57.6,-273,627,38,1013.03,57.1,0
"2016-10-31 03:47:20+00",14.7,18.7,,57.4,-299,592,47,1013.05,57,0
"2016-10-31 03:52:20+00",13.5,15.5,,57.3,-294,517,29,1013.16,57,0
"2016-10-31 03:57:20+00",13.4,16.4,,57.2,-258,528,23,1013.24,57,0
"2016-10-31 04:02:20+00",13.3,16.3,,57.2,-239,542,38,1013.22,56.9,0
"2016-10-31 04:07:20+00",15.1,18.1,,57.2,-256,608,19,1013.25,56.9,0
"2016-10-31 04:12:20+00",13.8,18.8,,57.1,-235,569,37,1013.28,56.8,0
"2016-10-31 04:17:20+00",15.4,18.4,,57.1,-186,648,38,1013.36,56.7,0
"2016-10-31 04:22:20+00",18.9,21.9,,57.1,-287,784,25,1013.44,56.6,0
"2016-10-31 04:27:20+00",17.0,19.0,,57,-304,683,30,1013.6,56.6,0
"2016-10-31 04:32:20+00",14.6,17.6,,56.9,-279,575,44,1013.59,56.5,0
"2016-10-31 04:37:20+00",16.8,19.8,,56.8,-332,666,46,1013.72,56.4,0
"2016-10-31 04:42:20+00",14.6,16.6,,56.7,-270,584,38,1013.78,56.3,0
"2016-10-31 04:47:20+00",13.7,16.7,,56.5,-319,523,18,1013.92,56.1,0
"2016-10-31 04:52:20+00",16.2,19.2,,56.4,-357,617,26,1014,56,0
"2016-10-31 04:57:20+00",15.5,18.5,,56.2,-349,578,40,1014.05,55.8,0
"2016-10-31 05:02:20+00",13.4,17.4,,56,-312,498,42,1014.2,55.6,0
"2016-10-31 05:07:20+00",13.7,16.7,,56,-302,528,40,1014.12,55.5,0
"2016-10-31 05:12:20+00",13.7,16.7,,55.9,-330,512,40,1014.26,55.4,0
"2016-10-31 05:17:20+00",13.2,16.2,,55.8,-275,523,30,1014.26,55.2,0
"2016-10-31 05:22:20+00",15.0,20.0,,55.7,-292,596,24,1014.28,55.1,0
"2016-10-31 05:27:20+00",13.6,15.6,,55.6,-280,527,40,1014.33,55,0
"2016-10-31 05:32:20+00",13.1,16.1,,55.5,-298,508,31,1014.34,54.9,0
"2016-10-31 05:37:20+00",12.0,14.0,,55.3,-269,464,27,1014.53,54.9,0
"2016-10-31 05:42:20+00",13.1,15.1,,55,-337,479,36,1014.5,54.7,0
"2016-10-31 05:47:20+00",12.6,14.6,,54.9,-295,483,25,1014.59,54.5,0
"2016-10-31 05:52:20+00",13.5,16.5,,54.9,-242,538,27,1014.6,54.5,0
"2016-10-31 05:57:20+00",15.1,19.1,,55.2,-270,601,27,1014.75,54.4,0
"2016-10-31 06:02:20+00",14.8,17.8,,55.4,-250,600,14,1014.76,54.5,0
"2016-10-31 06:07:20+00",13.7,15.7,,55.3,-256,546,32,1014.84,54.6,0
"2016-10-31 06:12:20+00",12.1,14.1,,55.1,-244,474,28,1014.83,54.6,0
"2016-10-31 06:17:20+00",13.1,17.1,,55,-285,500,39,1014.85,54.6,0
"2016-10-31 06:22:20+00",15.3,19.3,,55,-193,638,42,1014.78,54.5,0
"2016-10-31 06:27:20+00",14.3,17.3,,55.1,-173,604,14,1014.94,54.5,0
"2016-10-31 06:32:20+00",13.8,15.8,,55.1,-191,574,25,1014.97,54.5,0
"2016-10-31 06:37:20+00",12.4,15.4,,54.8,-152,538,20,1015.02,54.3,0
"2016-10-31 06:42:20+00",14.0,16.0,,54.6,-164,586,8,1015.07,54.1,0
"2016-10-31 06:47:20+00",11.8,13.8,,54.4,-140,499,24,1015.09,54,0
"2016-10-31 06:52:20+00",12.4,14.4,,54.3,-152,516,21,1015.06,53.8,0
"2016-10-31 06:57:20+00",10.5,12.5,,54.1,-203,412,33,1015.12,53.6,0
"2016-10-31 07:02:20+00",16.1,18.1,,54.1,-348,620,39,1015.06,53.4,0
"2016-10-31 07:07:20+00",15.1,18.1,,53.8,-357,557,30,1015.18,53.2,0
"2016-10-31 07:12:20+00",14.0,17.0,,53.4,-222,573,40,1015.28,53,0
"2016-10-31 07:17:20+00",17.0,20.0,,53.2,-327,678,38,1015.4,52.6,0
"2016-10-31 07:22:20+00",13.8,15.8,,52.8,-323,505,60,1015.35,52.3,0
"2016-10-31 07:27:20+00",14.9,20.9,,52.7,-380,552,40,1015.53,52.2,0
"2016-10-31 07:32:20+00",15.1,17.1,,52.3,-362,572,42,1015.56,52,0
"2016-10-31 07:37:20+00",16.4,19.4,,52.1,-381,617,45,1015.58,51.6,0
"2016-10-31 07:42:20+00",16.4,19.4,,51.9,-352,617,30,1015.62,51.4,0
"2016-10-31 07:47:20+00",16.2,19.2,,51.7,-363,617,46,1015.65,51.2,0
"2016-10-31 07:52:20+00",13.8,16.8,,51.5,-277,536,30,1015.72,51,0
"2016-10-31 07:57:20+00",14.8,16.8,,51.5,-289,585,36,1015.87,50.9,0
"2016-10-31 08:02:20+00",11.9,13.9,,51.2,-297,436,47,1015.89,50.7,0
"2016-10-31 08:07:20+00",13.5,15.5,,51.1,-233,550,44,1015.92,50.5,0
"2016-10-31 08:12:20+00",16.6,19.6,,51,-351,640,26,1015.97,50.4,0
"2016-10-31 08:17:20+00",14.5,16.5,,50.8,-367,533,40,1016.1,50.2,0
"2016-10-31 08:22:20+00",15.9,20.9,,50.5,-352,615,34,1016.05,50.1,0
"2016-10-31 08:27:20+00",16.0,19.0,,50.3,-357,614,32,1016.15,49.9,0
"2016-10-31 08:32:20+00",17.6,20.6,,50.2,-377,698,48,1016.17,49.7,0
"2016-10-31 08:37:20+00",15.2,19.2,,50,-284,609,25,1016.34,49.5,0
"2016-10-31 08:42:20+00",15.6,17.6,,50,-300,621,24,1016.37,49.5,0
"2016-10-31 08:47:20+00",13.5,15.5,,49.9,-331,507,30,1016.52,49.6,0
"2016-10-31 08:52:20+00",14.2,18.2,,50,-327,552,41,1016.73,49.6,0
"2016-10-31 08:57:20+00",13.2,16.2,,50,-295,505,33,1016.88,49.7,0
"2016-10-31 09:02:20+00",16.5,21.5,,49.9,-385,622,48,1016.94,49.7,0
"2016-10-31 09:07:20+00",16.3,18.3,,49.7,-286,661,29,1017.1,49.6,0
"2016-10-31 09:12:20+00",14.9,16.9,,49.4,-247,601,17,1017.13,49.3,0
"2016-10-31 09:17:20+00",14.5,16.5,,49.1,-216,605,17,1017.22,49,0
"2016-10-31 09:22:20+00",12.1,13.1,,48.9,-148,499,11,1017.35,48.6,0
"2016-10-31 09:27:20+00",11.6,13.6,,48.6,-171,481,4,1017.5,48.2,0
"2016-10-31 09:32:20+00",12.3,16.3,,48.4,-146,522,19,1017.62,48,0
"2016-10-31 09:37:20+00",12.6,14.6,,48.3,-118,534,15,1017.66,47.7,0
"2016-10-31 09:42:20+00",12.3,14.3,,48.2,-99,530,13,1017.76,47.5,0
"2016-10-31 09:47:20+00",11.2,14.2,,48,-90,475,10,1017.95,47.3,0
"2016-10-31 09:52:20+00",9.8,11.8,,47.8,-68,429,20,1018.12,47.1,0
"2016-10-31 09:57:20+00",9.8,10.8,,47.5,-97,407,17,1018.25,46.8,0
"2016-10-31 10:02:20+00",8.0,10.0,,47.3,-84,329,32,1018.35,46.7,0
"2016-10-31 10:07:20+00",11.9,14.9,,47.2,-163,492,14,1018.54,46.4,0
"2016-10-31 10:12:20+00",11.1,13.1,,47.1,-110,485,17,1018.53,46.4,0
"2016-10-31 10:17:20+00",11.1,12.1,,47.1,-87,478,23,1018.69,46.3,0
"2016-10-31 10:22:20+00",11.6,12.6,,47.1,-127,488,27,1018.78,46.4,0
"2016-10-31 10:27:20+00",9.3,11.3,,47,-72,402,26,1018.82,46.4,0
"2016-10-31 10:32:20+00",9.7,10.7,,46.9,-3,422,14,1018.89,46.3,0
"2016-10-31 10:37:20+00",12.2,14.2,,46.8,-4,535,-4,1018.88,45.9,0
"2016-10-31 10:42:20+00",14.0,16.0,,46.7,-16,618,15,1019,45.7,0
"2016-10-31 10:47:20+00",13.1,15.1,,46.6,-34,575,18,1019.06,45.6,0
"2016-10-31 10:52:20+00",13.7,14.7,,46.5,-61,604,4,1019.09,45.5,0
"2016-10-31 10:57:20+00",12.0,15.0,,46.5,-4,526,24,1019.1,45.5,0
"2016-10-31 11:02:20+00",12.8,15.8,,46.3,14,561,12,1019.26,45.4,0
"2016-10-31 11:07:20+00",12.6,13.6,,46.1,33,551,19,1019.26,45.2,0
"2016-10-31 11:12:20+00",14.3,16.3,,46,65,617,16,1019.19,45.1,0
"2016-10-31 11:17:20+00",15.0,17.0,,46.1,19,653,9,1019.27,45.1,0
"2016-10-31 11:22:20+00",13.6,17.6,,45.9,15,599,13,1019.36,45,0
"2016-10-31 11:27:20+00",12.6,14.6,,45.7,23,544,14,1019.49,44.9,0
"2016-10-31 11:32:20+00",10.1,13.1,,45.6,51,424,23,1019.54,44.8,0
"2016-10-31 11:37:20+00",13.0,15.0,,45.6,33,563,22,1019.72,44.8,0
"2016-10-31 11:42:20+00",11.9,13.9,,45.5,11,522,27,1019.77,44.7,0
"2016-10-31 11:47:20+00",14.5,16.5,,45.7,54,626,10,1019.97,44.7,0
"2016-10-31 11:52:20+00",11.2,12.2,,45.7,-31,490,6,1020.18,44.8,0
"2016-10-31 11:57:20+00",11.6,13.6,,45.6,-87,505,21,1020.25,44.8,3
"2016-10-31 12:02:20+00",13.8,15.8,,45.4,0,600,17,1020.35,44.8,16.2
"2016-10-31 12:07:20+00",12.7,15.7,,45.4,-14,558,18,1020.44,45,24.1
"2016-10-31 12:12:20+00",13.4,15.4,,45.9,-119,576,29,1020.35,45.6,33.5
"2016-10-31 12:17:20+00",9.6,11.6,,46.1,-111,418,44,1020.36,46.2,40
"2016-10-31 12:22:20+00",12.1,17.1,,46.1,-52,526,31,1020.42,46.8,49.4
"2016-10-31 12:27:20+00",10.6,12.6,,46.3,-24,457,20,1020.39,47.2,60.1
"2016-10-31 12:32:20+00",11.1,12.1,,46.4,-45,478,8,1020.53,47.5,69.9
"2016-10-31 12:37:20+00",12.3,14.3,,46.4,-31,540,12,1020.57,47.8,78.9
"2016-10-31 12:42:20+00",13.5,15.5,,46.4,-73,586,-3,1020.61,48,91.7
"2016-10-31 12:47:20+00",13.0,16.0,,46.8,-57,573,16,1020.78,48.4,102.6
"2016-10-31 12:52:20+00",15.3,17.3,,46.9,5,675,20,1020.74,48.6,113.6
"2016-10-31 12:57:20+00",11.2,13.2,,47,49,481,22,1020.87,48.6,122.7
"2016-10-31 13:02:20+00",14.0,18.0,,47,127,582,17,1020.89,48.4,130.5
"2016-10-31 13:07:20+00",17.4,22.4,,46.9,113,748,9,1020.85,48.4,140
"2016-10-31 13:12:20+00",18.9,20.9,,46.8,32,820,3,1020.91,48.3,148
"2016-10-31 13:17:20+00",16.6,18.6,,47,72,725,11,1020.8,48.5,159.3
"2016-10-31 13:22:20+00",21.5,24.5,,47,54,938,-10,1020.9,48.6,167.6
"2016-10-31 13:27:20+00",19.6,22.6,,47,-36,866,21,1020.85,48.8,178.3
"2016-10-31 13:32:20+00",15.4,18.4,,47.1,-64,676,22,1020.94,49.1,185.2
"2016-10-31 13:37:20+00",18.5,21.5,,47.2,-76,813,24,1020.89,49.4,195.6
"2016-10-31 13:42:20+00",17.5,20.5,,47.1,168,723,5,1020.92,49,205.4
"2016-10-31 13:47:20+00",19.8,22.8,,47.3,109,851,-12,1020.95,49.1,211.6
"2016-10-31 13:52:20+00",18.2,21.2,,47.4,-117,799,32,1021.06,49.1,218.6
"2016-10-31 13:57:20+00",14.6,17.6,,47.5,8,645,37,1021.07,49.4,222.9
"2016-10-31 14:02:20+00",17.5,20.5,,47.5,-37,765,10,1021.17,49.7,232.4
"2016-10-31 14:07:20+00",15.5,17.5,,47.7,73,665,7,1021.3,49.7,226
"2016-10-31 14:12:20+00",15.1,22.1,,48,34,651,39,1021.3,50.1,244.4
"2016-10-31 14:17:20+00",17.3,19.3,,48,91,744,5,1021.38,50.1,243.8
"2016-10-31 14:22:20+00",18.6,21.6,,47.8,39,815,12,1021.39,50,261
"2016-10-31 14:27:20+00",15.5,18.5,,47.9,108,662,10,1021.59,50.1,187.9
"2016-10-31 14:32:20+00",16.2,18.2,,48.1,141,681,-13,1021.57,50.2,269
"2016-10-31 14:37:20+00",14.3,16.3,,48.3,101,603,21,1021.58,50.5,273.8
"2016-10-31 14:42:20+00",14.3,20.3,,48.6,123,598,18,1021.64,51,276.7
"2016-10-31 14:47:20+00",15.5,17.5,,48.6,272,599,-16,1021.58,51.1,284.6
"2016-10-31 14:52:20+00",15.7,17.7,,48.4,10,688,14,1021.61,51,287
"2016-10-31 14:57:20+00",15.8,18.8,,48.7,190,650,19,1021.67,51.3,292.1
"2016-10-31 15:02:20+00",12.8,16.8,,48.7,158,515,-10,1021.69,51.3,295.1
"2016-10-31 15:07:20+00",7.1,8.1,,49,115,259,27,1021.73,51.6,301.6
"2016-10-31 15:12:20+00",10.7,15.7,,49,-71,461,34,1021.7,52,305
"2016-10-31 15:17:20+00",15.7,16.7,,49,113,673,2,1021.65,52.1,308.6
"2016-10-31 15:22:20+00",14.7,16.7,,49.1,147,612,-11,1021.64,52.2,313.8
"2016-10-31 15:27:20+00",12.6,14.6,,49.1,38,542,18,1021.59,52.2,315.5
"2016-10-31 15:32:20+00",13.4,17.4,,49.5,124,562,17,1021.59,52.6,318.3
"2016-10-31 15:37:20+00",10.8,13.8,,49.5,5,463,21,1021.71,53,321.1
"2016-10-31 15:42:20+00",10.2,12.2,,49.4,31,439,-2,1021.63,53,326.1
"2016-10-31 15:47:20+00",12.8,14.8,,49.7,-62,553,18,1021.61,53.2,329.3
"2016-10-31 15:52:20+00",13.0,15.0,,50,-120,571,27,1021.67,53.4,328.5
"2016-10-31 15:57:20+00",13.5,17.5,,50,109,555,16,1021.66,53.5,332.1
"2016-10-31 16:02:20+00",7.7,10.7,,50.2,134,280,20,1021.67,53.6,291.4
"2016-10-31 16:07:20+00",8.9,10.9,,50.2,41,376,-20,1021.63,54,335.4
"2016-10-31 16:12:20+00",12.2,14.2,,50.2,47,518,7,1021.55,54,339.5
"2016-10-31 16:17:20+00",8.8,9.8,,50.2,53,377,11,1021.57,53.9,340.7
"2016-10-31 16:22:20+00",8.3,10.3,,50.3,26,343,5,1021.69,54.1,340.6
"2016-10-31 16:27:20+00",8.2,12.2,,50.4,-20,338,32,1021.67,54.1,340
"2016-10-31 16:32:20+00",7.8,8.8,,50.5,-91,321,21,1021.46,54.4,340.8
"2016-10-31 16:37:20+00",6.2,8.2,,51,-3,251,26,1021.4,55,340
"2016-10-31 16:42:20+00",10.5,13.5,,51,231,384,2,1021.34,54.8,343.6
"2016-10-31 16:47:20+00",10.3,12.3,,51,89,417,18,1021.37,54.5,342.7
"2016-10-31 16:52:20+00",7.6,10.6,,51,103,281,10,1021.25,54.5,343.1
"2016-10-31 16:57:20+00",10.9,12.9,,51.3,-44,467,34,1021.25,54.6,342.8
"2016-10-31 17:02:20+00",8.4,10.4,,51.7,32,344,67,1021.07,55,340.2
"2016-10-31 17:07:20+00",7.8,9.8,,51.3,26,331,20,1021.16,54.9,337.8
"2016-10-31 17:12:20+00",9.0,13.0,,51.5,190,324,21,1021.07,54.9,339.8
"2016-10-31 17:17:20+00",9.5,11.5,,51.5,-23,409,-2,1021.22,55,334.9
"2016-10-31 17:22:20+00",9.2,11.2,,51.4,-70,389,28,1021.27,55.1,332.7
"2016-10-31 17:27:20+00",5.4,7.4,,51.4,-94,201,54,1021.19,55.3,329.2
"2016-10-31 17:32:20+00",7.3,8.3,,51.7,-86,302,14,1021.33,55.6,326.6
"2016-10-31 17:37:20+00",5.6,6.6,,51.6,190,132,8,1021.27,55.2,326.7
"2016-10-31 17:42:20+00",5.6,7.6,,52,5,222,5,1021.18,55.2,323.6
"2016-10-31 17:47:20+00",7.2,8.2,,52.3,-72,297,27,1021.22,55.7,318
"2016-10-31 17:52:20+00",8.1,12.1,,52.6,114,308,15,1021.09,56,315.7
"2016-10-31 17:57:20+00",7.1,9.1,,52.3,166,249,-27,1021.12,55.4,318.8
"2016-10-31 18:02:20+00",7.4,8.4,,52.8,238,193,40,1020.93,55.5,311.2
"2016-10-31 18:07:20+00",7.5,12.5,,52.6,24,291,20,1020.99,55.7,307.3
"2016-10-31 18:12:20+00",5.4,7.4,,52.7,-38,227,28,1020.96,55.8,300.9
"2016-10-31 18:17:20+00",7.9,8.9,,52.8,-150,311,20,1020.97,56.2,295.9
"2016-10-31 18:22:20+00",5.7,9.7,,53.2,221,52,35,1020.88,56.5,290.3
"2016-10-31 18:27:20+00",6.5,8.5,,52.6,191,187,-6,1020.92,55.7,291.7
"2016-10-31 18:32:20+00",6.5,7.5,,52.7,255,125,-4,1020.97,55.6,287.1
"2016-10-31 18:37:20+00",6.6,7.6,,53.1,57,263,1,1020.85,55.9,281.8
"2016-10-31 18:42:20+00",4.9,7.9,,53.7,96,157,25,1020.89,56.7,274.4
"2016-10-31 18:47:20+00",9.2,11.2,,54.1,181,336,6,1020.97,56.6,275.5
"2016-10-31 18:52:20+00",6.6,9.6,,54.1,-53,271,26,1020.95,56.8,265.9
"2016-10-31 18:57:20+00",10.4,12.4,,53.7,106,410,-6,1020.99,56.5,263.7
"2016-10-31 19:02:20+00",5.2,7.2,,54,33,190,39,1020.96,56.2,256
"2016-10-31 19:07:20+00",6.8,8.8,,54.1,-20,271,39,1020.93,56.4,249.5
"2016-10-31 19:12:20+00",5.5,7.5,,53.7,-99,201,-3,1021,56.9,238.6
"2016-10-31 19:17:20+00",4.4,6.4,,53.9,-53,162,24,1021.08,57.2,241
"2016-10-31 19:22:20+00",6.3,9.3,,54.2,62,252,22,1021.06,56.7,236.2
"2016-10-31 19:27:20+00",7.6,9.6,,54.1,-58,318,0,1021.02,56.8,227.1
"2016-10-31 19:32:20+00",8.0,10.0,,54.3,175,282,17,1021.04,56.7,211.5
"2016-10-31 19:37:20+00",8.0,11.0,,54.4,120,304,4,1021.09,56.4,199.3
"2016-10-31 19:42:20+00",7.4,8.4,,54.1,-120,293,4,1021.15,56.5,188.2
"2016-10-31 19:47:20+00",6.6,7.6,,54.2,-98,264,4,1021.1,56.9,174.2
"2016-10-31 19:52:20+00",7.8,9.8,,54.2,-16,335,-4,1021.21,56.7,162.6
"2016-10-31 19:57:20+00",6.9,7.9,,54.1,-78,284,0,1021.35,56.8,152.3
"2016-10-31 20:02:20+00",10.5,12.5,,54.3,-18,453,6,1021.3,57,150.8
"2016-10-31 20:07:20+00",6.7,7.7,,54.4,17,284,19,1021.33,56.9,156.3
"2016-10-31 20:12:20+00",8.1,10.1,,54.3,-135,326,13,1021.35,56.7,147.6
"2016-10-31 20:17:20+00",6.8,7.8,,54.2,-105,267,15,1021.46,57.1,131.2
"2016-10-31 20:22:20+00",9.8,11.8,,54.6,-101,412,30,1021.52,57.3,136.6
"2016-10-31 20:27:20+00",6.0,7.0,,54.4,-37,248,10,1021.61,57.2,109.3
"2016-10-31 20:32:20+00",8.2,10.2,,54.4,20,353,9,1021.6,56.9,78.5
"2016-10-31 20:37:20+00",7.8,9.8,,54.2,-118,309,21,1021.64,56.4,77.9
"2016-10-31 20:42:20+00",5.4,7.4,,54.3,108,185,14,1021.66,56,70.6
"2016-10-31 20:47:20+00",6.3,8.3,,54.3,91,239,22,1021.82,55.3,49.8
"2016-10-31 20:52:20+00",6.9,7.9,,54.1,45,288,3,1021.91,54.8,42.4
"2016-10-31 20:57:20+00",7.9,8.9,,54,67,321,-6,1021.98,54.5,48.7
"2016-10-31 21:02:20+00",6.5,7.5,,54.1,48,266,17,1021.82,54.4,34.6
"2016-10-31 21:07:20+00",4.9,6.9,,54,48,188,27,1021.94,54.1,3.6
"2016-10-31 21:12:20+00",5.4,6.4,,53.9,-42,219,22,1021.87,54,2.7
"2016-10-31 21:17:20+00",7.8,8.8,,53.8,-68,330,6,1022,54,0
"2016-10-31 21:22:20+00",4.9,5.9,,53.8,-14,201,11,1022.04,53.9,0
"2016-10-31 21:27:20+00",7.0,8.0,,53.7,-3,295,10,1022.18,53.8,0
"2016-10-31 21:32:20+00",5.9,6.9,,53.5,17,245,4,1022.33,53.4,0
"2016-10-31 21:37:20+00",7.4,8.4,,53.2,-69,308,11,1022.23,52.9,0
"2016-10-31 21:42:20+00",7.0,8.0,,53.2,-17,296,14,1022.34,52.5,0
"2016-10-31 21:47:20+00",6.0,7.0,,53,-20,251,13,1022.41,52,0
"2016-10-31 21:52:20+00",5.7,5.7,,52.9,-52,232,9,1022.29,51.6,0
"2016-10-31 21:57:20+00",5.4,5.4,,52.8,-56,222,5,1022.39,51.3,0
"2016-10-31 22:02:20+00",5.6,6.6,,52.8,-81,223,11,1022.4,51,0
"2016-10-31 22:07:20+00",5.0,7.0,,52.8,-57,202,9,1022.6,50.8,0
"2016-10-31 22:12:20+00",5.4,6.4,,52.4,-28,222,-1,1022.67,50.4,0
"2016-10-31 22:17:20+00",5.5,6.5,,52.3,-61,222,1,1022.75,50.2,0
"2016-10-31 22:22:20+00",6.3,6.3,,52.4,-110,245,15,1022.74,50.1,0
"2016-10-31 22:27:20+00",5.8,5.8,,52.7,-93,228,13,1022.85,50,0
"2016-10-31 22:32:20+00",6.1,6.1,,52.8,-125,228,15,1023.02,49.9,0
"2016-10-31 22:37:20+00",5.5,6.5,,52.7,-114,204,11,1022.9,49.9,0
"2016-10-31 22:42:20+00",5.5,5.5,,52.7,-67,220,10,1023.03,49.7,0
"2016-10-31 22:47:20+00",4.9,5.9,,52.5,-58,190,7,1022.99,49.8,0
"2016-10-31 22:52:20+00",5.4,5.4,,52.5,-73,216,9,1023.03,49.7,0
"2016-10-31 22:57:20+00",5.6,6.6,,52.4,-60,225,6,1023.02,49.6,0
"2016-10-31 23:02:20+00",5.8,6.8,,52.4,-73,238,11,1023.14,49.5,0
"2016-10-31 23:07:20+00",5.6,6.6,,52.2,-53,230,9,1023.13,49.2,0
"2016-10-31 23:12:20+00",4.8,4.8,,52.2,-57,195,4,1023.22,49.1,0
"2016-10-31 23:17:20+00",4.5,4.5,,52.2,-33,179,-1,1023.18,49.1,0
"2016-10-31 23:22:20+00",4.7,4.7,,52.1,-51,186,6,1023.16,49.1,0
"2016-10-31 23:27:20+00",4.4,4.4,,52,-45,176,4,1023.37,49,0
"2016-10-31 23:32:20+00",4.0,4.0,,52,-34,157,2,1023.38,49.1,0
"2016-10-31 23:37:20+00",3.6,3.6,,51.9,-41,138,5,1023.35,49,0
"2016-10-31 23:42:20+00",3.6,3.6,,51.8,-43,138,3,1023.22,48.9,0
"2016-10-31 23:47:20+00",3.8,3.8,,51.7,-86,131,9,1023.24,48.8,0
"2016-10-31 23:52:20+00",3.7,3.7,,51.7,-91,122,5,1023.42,48.6,0
"2016-10-31 23:57:20+00",3.9,3.9,,51.7,-98,130,11,1023.42,48.4,0
